THOR ABLESTAR DEB, 252

Orbit data source: Space-Track

THOR ABLESTAR DEB, 252 is space debris in LEO originally from a launch on Thu, 29 Jun 1961 UTC launched from the Air Force Eastern Test Range (AFETR). Debris objects in space refer to the collection of defunct objects orbiting the Earth. Examples of debris include non-operational satellites, rocket bodies, and fragments generated from explosions, collisions, or faulty payload assembly.

Loading next visibility...
Identifier
252, 1961-015CD
Orbit
LEO
Country
Flag of USUS
Related business
Manufacturer
Unknown
Mission
Spacecraft
Bus & Motor
Unknown
Mass
Unknown
Launch date (UTC)
1961-06-29 (65 years ago)
Launch vehicle
Unknown
Launch site
Air Force Eastern Test Range (AFETR)
Object type
Payload
Rocket body
Debris
Shape & HBR
Unknown shape, 0.4 m
Radar Cross Section
Medium (>0.1 m² and <1 m²)

Expand to show TLE details & history
Last TLE update: 9 hours ago

TLE from 9 hours ago
0 THOR ABLESTAR DEB
1 00252U 61015CD  26227.82827422  .00000107  00000-0  17669-3 0  9996
2 00252  67.0781  45.8297 0052942 163.6285 305.8790 13.77861502259545
Epoch: 2026-08-15T19:52Z
TLE epoch observation values (Epoch: 2026-08-15T19:52:42.892Z)
Latitude
60.66404°
Longitude
-85.04409°
Altitude
958.338 km
Speed
7.39 km/s
True Right ascension
11h 49m 28s
True Declination
60° 31' 15"
Sunlit
Object was in daylight at epoch
Visualization orbit readout
Latitude
Unknown
Longitude
Unknown
Altitude
Unknown
Speed
Unknown
Apparent Right ascension
Unknown
Apparent Declination
Unknown
Sunlit
N/A
Visualization observer readout
Local Sidereal Time
19:39:18
Azimuth
Unknown
Elevation
Unknown
Doppler factor
Unknown
Orbital elements
Apogee altitude
1,008.755 km
Perigee altitude
930.952 km
Semi-major axis
7,347.991 km
Eccentricity
0.00529
Inclination
67.0781°
RAAN
45.8297°
Arg. of periapsis
163.6285°
True anomaly
305.38553°
Mean anomaly
305.879°
Eccentric anomaly
305.63246°
Mean motion
3.4458 °/min
Orbital period
104.47 mins
BSTAR
0.00017669
Loading maneuver chart data...
Computing Atmospheric mass density...

Documentation

Showing up to 5 results
|